Main page
METAR-TAF:

METAR-TAF

Airports :

Kashmar, Iran

latitude: 35-16-14N, longitude: 58-28-24E, elevation: 1110 m

Current weather observation

The report was made 18 minutes ago, at 17:00 UTC
Wind 10 kt from the East/Southeast
Temperature 33°C
Humidity 23%
Pressure 1008 hPa
Visibility 10 km or more
Few clouds at a height of 4000 ft

METAR: OIMQ 231700Z 12010KT 9999 FEW040 33/09 Q1008

Time: 21:48 (17:18 UTC)


TAF: missing

Weather observations and forecasts of more than 4000 airports (METAR and TAF reports).

The available stations are represented by yellow and red dots on the map.

Hover mouse over dot to see the name of the station.

Then click to see weather observations and forecasts.

To change the map : click on the green buttons with a black cross to zoom in, on the green button with a dash to zoom out, or on the green arrows for adjacent maps.


METAR-TAF: